Total_Precipitation_Accumulation
0.13 0.19 0.24 0.27 0.24 0.20 0.17 0.16 0.27 0.41 0.59 0.75 0.92 1.01 1.06 1.02 0.99 0.92 0.88 0.88 0.83 0.86 0.96 1.07 1.23 1.34 1.49 1.55 1.75 1.88 2.15 2.31 2.33 2.43 2.44 2.47 2.59 2.59 2.51 2.55 2.59 2.77 2.82 2.85
0.11 0.12 0.17 0.20 0.23 0.18 0.15 0.15 0.20 0.38 0.68 0.76 0.88 1.00 1.05 0.99 0.95 0.92 0.90 0.92 1.01 1.03 1.08 1.19 1.24 1.36 1.48 1.58 1.81 2.07 2.32 2.59 2.64 2.69 2.67 2.74 2.87 2.92 2.83 2.83 2.97 3.00 2.86 2.79
0.18 0.19 0.19 0.24 0.23 0.21 0.23 0.22 0.28 0.44 0.65 0.76 0.87 0.99 1.16 1.14 1.02 1.00 1.03 1.07 1.17 1.28 1.27 1.28 1.34 1.47 1.64 1.79 2.01 2.21 2.37 2.61 2.79 2.88 2.93 3.01 3.08 3.08 3.03 3.14 3.33 3.30 3.13 2.92
0.24 0.29 0.35 0.30 0.28 0.28 0.33 0.36 0.41 0.55 0.65 0.89 1.09 1.20 1.45 1.55 1.33 1.20 1.11 1.11 1.22 1.43 1.54 1.51 1.51 1.63 1.88 2.06 2.32 2.56 2.68 2.76 2.86 2.95 3.02 3.08 3.15 3.04 3.08 3.22 3.28 3.28 3.16 3.00
0.34 0.38 0.38 0.41 0.44 0.47 0.55 0.69 0.68 0.80 0.95 1.15 1.28 1.31 1.46 1.36 1.23 1.17 1.19 1.31 1.43 1.58 1.66 1.72 1.76 1.89 2.02 2.18 2.42 2.68 2.85 2.82 2.79 2.90 3.04 3.10 3.11 3.10 3.15 3.20 3.09 2.95 2.84 2.81
0.46 0.52 0.58 0.61 0.62 0.60 0.70 1.28 1.26 1.26 1.26 1.33 1.41 1.70 1.68 1.36 1.21 1.21 1.26 1.33 1.46 1.59 1.60 1.68 1.79 1.80 1.90 2.15 2.42 2.61 2.79 2.86 2.87 2.99 3.07 3.09 3.18 3.23 3.18 3.13 3.04 2.94 2.75 2.73
0.63 0.75 0.75 0.65 0.62 0.68 1.16 1.63 1.46 1.43 1.44 1.44 1.65 1.74 1.63 1.45 1.40 1.35 1.37 1.47 1.50 1.57 1.57 1.57 1.71 1.79 1.93 2.07 2.23 2.44 2.68 2.90 3.12 3.25 3.28 3.25 3.28 3.17 3.10 3.03 3.05 3.00 2.85 2.74
0.87 1.16 1.29 0.87 0.73 1.07 1.46 1.30 1.44 1.60 1.56 1.56 1.60 1.54 1.50 1.47 1.48 1.45 1.45 1.51 1.52 1.56 1.66 1.74 1.88 2.00 2.05 1.99 2.10 2.32 2.44 2.66 2.82 3.01 3.11 3.09 3.16 3.10 3.16 3.11 2.99 2.86 2.75 2.61
1.28 1.45 1.30 1.07 1.10 1.28 1.33 1.41 1.46 1.63 1.74 1.67 1.75 1.70 1.52 1.53 1.49 1.62 1.72 1.74 1.69 1.59 1.68 1.88 1.98 2.09 2.17 2.07 2.01 2.09 2.24 2.44 2.66 2.84 3.11 3.24 3.28 3.22 3.12 3.03 2.83 2.62 2.48 2.33
1.56 1.60 1.46 1.39 1.34 1.33 1.37 1.44 1.50 1.62 1.76 1.84 1.76 1.63 1.58 1.54 1.44 1.39 1.47 1.52 1.67 1.65 1.71 2.07 2.05 1.99 2.03 2.07 2.06 2.13 2.24 2.34 2.51 2.65 2.85 3.11 3.20 3.12 2.95 2.69 2.53 2.47 2.39 2.34
1.80 1.86 1.62 1.55 1.47 1.52 1.51 1.51 1.52 1.58 1.68 1.77 1.66 1.56 1.57 1.63 1.48 1.40 1.44 1.43 1.44 1.54 1.61 1.73 1.83 1.86 1.86 1.93 2.03 2.07 2.11 2.13 2.17 2.37 2.57 2.75 2.79 2.70 2.55 2.42 2.49 2.51 2.45 2.41
2.12 1.90 1.87 1.87 1.71 1.69 1.78 1.80 1.85 1.81 1.95 1.92 1.70 1.64 1.55 1.49 1.42 1.32 1.28 1.41 1.46 1.43 1.46 1.55 1.63 1.75 1.83 1.97 2.12 2.19 2.14 2.09 2.02 1.97 2.08 2.36 2.64 2.70 2.60 2.39 2.41 2.31 2.21 2.16
1.83 1.78 1.88 1.93 1.94 1.96 2.05 2.05 2.07 2.07 2.10 2.01 1.79 1.71 1.58 1.50 1.37 1.30 1.25 1.33 1.54 1.61 1.59 1.69 1.70 1.64 1.71 1.92 2.09 2.23 2.16 2.11 2.00 1.89 1.93 2.10 2.42 2.71 2.79 2.58 2.33 2.18 1.95 1.76
1.69 1.87 2.11 2.16 2.20 2.15 2.10 2.12 2.15 2.26 2.21 2.14 1.94 1.73 1.64 1.66 1.58 1.43 1.37 1.41 1.59 1.77 1.81 1.81 1.82 1.81 1.81 1.91 2.00 2.08 2.09 2.10 1.97 1.85 1.92 2.04 2.27 2.57 2.75 2.71 2.48 2.18 1.87 1.65
1.91 1.93 1.98 1.95 2.06 2.09 2.10 2.15 2.14 2.29 2.34 2.24 2.01 1.85 1.71 1.60 1.57 1.53 1.50 1.59 1.79 1.91 1.88 1.80 1.81 1.80 1.70 1.65 1.79 1.94 2.02 2.05 2.01 1.93 1.93 1.94 2.13 2.43 2.61 2.63 2.50 2.29 1.98 1.68
2.14 2.01 1.85 1.88 2.05 2.09 2.10 2.20 2.13 2.17 2.29 2.20 2.02 1.94 1.93 1.82 1.72 1.60 1.62 1.74 2.02 2.11 1.96 1.87 1.88 1.84 1.70 1.65 1.68 1.74 1.80 1.85 1.76 1.72 1.78 1.76 1.82 1.98 2.26 2.43 2.38 2.32 2.07 1.64
2.11 2.21 2.16 2.19 2.20 2.18 2.19 2.16 2.07 2.10 2.15 2.21 2.17 2.07 2.16 2.11 2.07 2.00 1.94 1.94 2.07 2.12 1.96 1.86 1.83 1.74 1.60 1.60 1.65 1.58 1.55 1.61 1.57 1.43 1.54 1.63 1.70 1.85 2.12 2.34 2.29 2.20 2.02 1.72
1.91 1.92 1.94 2.05 2.19 2.26 2.16 2.01 1.93 1.90 1.95 2.07 2.14 2.12 2.18 2.28 2.37 2.44 2.34 2.17 2.05 1.92 1.79 1.70 1.67 1.59 1.48 1.45 1.41 1.36 1.34 1.35 1.35 1.29 1.38 1.49 1.60 1.83 2.10 2.24 2.14 2.04 1.93 1.75
1.80 1.83 1.82 1.83 1.96 2.01 1.89 1.84 1.77 1.66 1.64 1.73 1.85 1.96 2.06 2.15 2.22 2.41 2.33 2.28 2.23 2.06 1.76 1.57 1.61 1.46 1.40 1.39 1.40 1.32 1.23 1.24 1.26 1.26 1.31 1.43 1.57 1.73 1.89 1.93 1.91 1.90 1.75 1.61
1.87 1.88 1.80 1.87 1.95 1.90 1.76 1.65 1.68 1.62 1.61 1.65 1.62 1.66 1.78 1.87 1.97 2.19 2.25 2.28 2.20 1.97 1.69 1.54 1.38 1.28 1.22 1.20 1.24 1.26 1.31 1.36 1.40 1.44 1.48 1.55 1.62 1.72 1.76 1.73 1.67 1.64 1.61 1.60
1.77 1.74 1.70 1.86 1.89 1.73 1.60 1.49 1.54 1.56 1.57 1.53 1.48 1.50 1.54 1.62 1.74 1.98 2.29 2.43 2.11 1.71 1.48 1.44 1.27 1.14 1.08 1.13 1.15 1.13 1.25 1.37 1.43 1.51 1.56 1.62 1.70 1.72 1.71 1.67 1.56 1.51 1.51 1.54
1.72 1.67 1.65 1.73 1.80 1.69 1.43 1.35 1.36 1.37 1.37 1.31 1.27 1.34 1.40 1.52 1.62 1.75 1.95 2.20 2.11 1.92 1.50 1.27 1.16 1.08 1.06 1.08 1.00 1.05 1.13 1.23 1.36 1.40 1.44 1.54 1.65 1.71 1.66 1.61 1.54 1.50 1.51 1.54
1.87 1.71 1.71 1.74 1.80 1.67 1.44 1.33 1.34 1.43 1.38 1.32 1.31 1.34 1.37 1.51 1.58 1.81 1.95 1.84 1.81 1.88 1.53 1.33 1.36 1.24 1.08 0.98 0.96 0.99 1.06 1.16 1.30 1.40 1.43 1.49 1.54 1.57 1.57 1.51 1.51 1.51 1.52 1.46
2.05 1.85 1.76 1.70 1.72 1.64 1.60 1.45 1.34 1.45 1.41 1.30 1.25 1.24 1.29 1.41 1.43 1.49 1.65 1.77 1.79 1.74 1.44 1.36 1.35 1.20 1.06 0.97 1.05 1.12 1.22 1.31 1.33 1.32 1.29 1.36 1.43 1.42 1.40 1.34 1.31 1.36 1.36 1.33
2.06 1.95 1.82 1.71 1.73 1.64 1.53 1.43 1.39 1.44 1.36 1.30 1.31 1.33 1.29 1.34 1.44 1.47 1.45 1.49 1.67 1.67 1.43 1.38 1.29 1.20 1.07 1.01 1.13 1.28 1.34 1.27 1.23 1.21 1.22 1.26 1.35 1.36 1.30 1.32 1.36 1.31 1.27 1.25
2.02 1.98 1.90 1.74 1.62 1.54 1.46 1.43 1.48 1.50 1.44 1.45 1.47 1.43 1.38 1.39 1.45 1.45 1.45 1.43 1.46 1.55 1.43 1.27 1.14 1.11 1.11 1.12 1.14 1.21 1.20 1.16 1.16 1.16 1.17 1.20 1.26 1.29 1.25 1.27 1.28 1.25 1.26 1.28
1.99 1.96 1.90 1.78 1.67 1.54 1.50 1.54 1.55 1.57 1.54 1.55 1.59 1.55 1.56 1.58 1.60 1.62 1.54 1.47 1.39 1.35 1.26 1.14 1.04 0.99 0.99 1.04 1.02 1.03 1.07 1.09 1.07 1.06 1.10 1.15 1.20 1.22 1.16 1.15 1.17 1.17 1.20 1.19